Kuchera_Ratio
0.0 0.0 0.0 0.0 0.0 0.0 0.0 0.0 0.0 0.0 0.0 0.0 0.0 0.0 0.0 0.0 0.0 0.0 0.0 0.0 0.0 0.0 0.0 0.0 0.0 0.0 0.0 0.0 0.0 0.0 0.0 0.0 0.0 0.0 0.0 0.0 0.0 0.0
0.0 0.0 0.0 0.0 0.0 0.0 0.0 0.0 0.0 0.0 0.0 0.0 0.0 0.0 0.0 0.0 0.0 0.0 0.0 0.0 0.0 0.0 0.0 0.0 0.0 0.0 0.0 0.0 0.0 0.0 0.0 0.0 0.0 0.0 0.0 0.0 0.0 0.0
0.0 0.0 0.0 0.0 0.0 0.0 0.0 0.0 0.0 0.0 0.0 0.0 0.0 0.0 0.0 0.0 0.0 0.0 0.0 0.0 0.0 0.0 0.0 0.0 0.0 0.0 0.0 0.0 0.0 0.0 0.0 0.0 0.0 0.0 0.0 0.0 0.0 0.0
0.0 0.0 0.0 0.0 0.0 0.0 0.0 0.0 0.0 0.0 0.0 0.0 0.0 0.0 0.0 0.0 0.0 0.0 0.0 0.0 0.0 0.0 0.0 0.0 0.0 0.0 0.0 0.0 0.0 0.0 0.0 0.0 0.0 0.0 0.0 0.0 0.0 0.0
0.0 0.0 0.0 0.0 0.0 0.0 0.0 0.0 0.0 0.0 0.0 0.0 0.0 0.0 0.0 0.0 0.0 0.0 0.0 0.0 0.0 0.0 0.0 0.0 0.0 0.0 0.0 0.0 0.0 0.0 0.0 0.0 0.0 0.0 0.0 0.0 0.0 0.0
0.0 0.0 0.0 0.0 0.0 0.0 0.0 0.0 0.0 0.0 0.0 0.0 0.0 0.0 0.0 0.0 0.0 0.0 0.0 0.0 0.0 0.0 0.0 0.0 0.0 0.0 0.0 0.0 0.0 0.0 0.0 0.0 0.0 0.0 0.0 0.0 0.0 0.0
0.0 0.0 0.0 0.0 0.0 0.0 0.0 0.0 0.0 0.0 0.0 0.0 0.0 0.0 0.0 0.0 0.0 0.0 0.0 0.0 0.0 0.0 0.0 0.0 0.0 0.0 0.0 0.0 0.0 0.0 0.0 0.0 0.0 0.0 0.0 0.0 0.0 0.0
0.0 0.0 0.0 0.0 0.0 0.0 0.0 0.0 0.0 0.0 0.0 0.0 0.0 0.0 0.0 0.0 0.0 0.0 0.0 0.0 0.0 0.0 0.0 0.0 0.0 0.0 0.0 0.0 0.0 0.0 0.0 0.0 0.0 0.0 0.0 0.0 0.0 0.0
0.0 0.0 0.0 0.0 0.0 0.0 0.0 0.0 0.0 0.0 0.0 0.0 0.0 0.0 0.0 0.0 0.0 0.0 0.0 0.0 0.0 0.0 0.0 0.0 1.4 0.0 0.0 0.0 0.0 0.0 0.0 0.0 0.0 0.0 0.0 0.0 0.0 0.0
0.0 0.0 0.0 0.0 0.0 0.0 0.0 0.0 0.0 0.0 0.0 0.0 0.0 0.0 0.0 0.0 0.0 0.0 0.0 0.0 1.3 0.0 0.0 1.3 0.0 0.5 0.8 0.0 0.0 0.0 0.0 0.0 0.0 0.0 0.0 0.0 0.0 0.0
0.0 0.0 0.0 0.0 0.0 0.0 0.0 0.0 0.0 0.0 0.0 0.0 0.0 0.0 0.0 0.0 0.0 0.0 1.1 1.2 2.9 0.9 2.5 1.2 0.9 3.3 4.3 2.4 0.0 0.0 0.0 0.0 0.0 0.0 0.0 0.0 0.0 0.0
0.0 0.0 0.0 0.0 0.0 0.0 0.0 0.0 0.0 0.0 0.0 0.0 0.0 0.0 0.0 0.0 0.0 0.0 0.0 1.2 2.1 2.7 0.7 2.7 3.9 6.1 7.6 5.7 3.6 0.3 0.0 0.0 0.0 0.0 0.0 0.0 0.0 1.9
0.0 0.0 0.0 0.0 0.0 0.0 0.0 0.0 0.0 0.0 0.0 0.0 0.0 0.0 0.0 0.0 0.0 0.0 0.0 0.0 1.9 1.0 2.3 2.3 3.5 7.1 6.7 5.7 6.2 6.7 4.7 3.8 2.7 1.3 0.0 0.0 0.0 0.0
0.0 0.0 0.0 0.0 0.0 0.0 0.0 0.0 0.0 0.0 0.0 0.0 0.8 1.6 1.1 0.7 1.5 2.8 3.4 3.6 2.9 3.4 3.1 4.2 5.2 6.2 7.0 8.1 9.0 10.1 9.5 8.2 8.1 7.9 7.2 3.5 0.8 0.7
0.0 0.0 0.0 0.0 0.0 0.0 0.0 0.0 0.0 0.0 0.1 1.7 1.8 1.8 2.3 2.0 3.5 2.8 4.5 6.5 6.5 7.3 5.9 7.0 2.4 5.8 6.2 7.3 10.1 11.3 11.6 10.4 9.5 10.3 11.4 11.6 10.7 11.4
0.0 0.2 0.0 0.0 0.0 0.0 0.0 0.0 0.2 0.6 0.5 2.1 2.8 3.0 3.7 4.9 5.6 5.8 5.1 7.4 9.0 10.2 9.7 8.7 6.9 7.2 8.1 9.3 11.7 12.3 12.1 12.5 12.4 12.8 12.5 12.1 11.2 11.1
0.0 1.4 2.8 2.6 2.8 2.5 2.5 3.1 3.1 2.6 2.7 3.0 3.6 3.5 5.5 6.9 8.2 8.8 9.8 9.8 9.3 10.0 12.7 12.0 11.0 11.2 11.8 12.4 13.6 12.9 13.5 13.7 13.4 13.7 14.5 14.6 12.6 12.5
3.6 5.9 5.6 5.7 5.7 5.8 5.5 6.0 6.8 6.0 5.4 6.2 6.6 6.0 6.5 7.5 7.8 8.7 10.0 10.5 11.5 11.9 10.9 12.8 12.5 13.1 13.7 12.3 9.4 13.5 13.9 14.5 14.1 14.6 15.1 15.7 15.5 12.6
5.9 7.4 7.6 7.7 8.1 7.9 7.7 7.7 8.7 8.1 7.7 8.6 9.3 9.9 10.4 9.9 10.3 11.9 12.0 12.1 12.4 12.8 13.2 13.5 14.3 14.9 15.0 15.4 13.8 7.4 14.5 14.8 14.7 15.0 15.0 15.9 16.6 14.7
6.7 7.7 8.0 8.0 7.8 7.9 7.9 8.6 8.4 8.2 8.1 8.4 8.8 9.1 9.6 9.9 12.1 12.5 12.4 12.9 13.3 13.7 14.3 14.6 15.3 15.0 15.1 15.5 15.5 15.0 11.4 15.4 15.5 15.9 16.6 16.3 14.2 10.0
7.7 8.1 7.7 7.9 8.0 7.7 7.8 7.6 7.6 8.3 8.4 9.0 9.8 10.4 10.9 11.4 12.4 12.4 12.6 12.0 12.8 14.4 15.4 15.4 14.6 12.3 15.4 16.0 15.8 16.1 15.6 10.3 12.6 16.0 16.1 17.2 16.3 15.0
8.0 8.2 8.2 8.0 7.8 7.4 7.6 7.7 7.8 8.0 9.7 9.7 10.5 10.5 10.9 11.3 12.4 12.7 12.6 12.8 14.0 15.0 15.2 15.5 15.4 15.9 16.3 16.4 16.4 16.7 17.0 16.0 13.1 10.7 9.7 11.3 15.6 17.8
8.4 8.3 8.0 7.9 7.4 7.3 7.5 7.7 9.9 10.6 10.5 10.3 10.4 10.8 11.4 12.7 12.6 12.8 13.3 13.9 14.5 15.2 15.5 16.7 16.9 16.6 16.5 17.1 17.2 17.4 18.0 17.8 17.1 16.8 15.0 10.5 9.3 8.7